Weather History for Sheridan, WY

Change the Weather History Date:

Monday, March 17, 2014

  Actual Average Record
Temperature  
Mean Temperature 45 °F 36 °F  
Max Temperature 58 °F 49 °F 73 °F (2012)
Min Temperature 32 °F 22 °F -11 °F (1943)
Degree Days  
Heating Degree Days 20 29  
Month to date heating degree days 547 544  
Since 1 July heating degree days 6297 6079  
Cooling Degree Days 0 0  
Month to date cooling degree days 0 0  
Year to date cooling degree days 0 0  
Moisture  
Dew Point 28 °F    
Average Humidity 56    
Maximum Humidity 92    
Minimum Humidity 19    
Precipitation  
Precipitation 0.33 in 0.04 in 0.70 in (2003)
Month to date precipitation 1.02 0.47  
Year to date precipitation 2.87 1.57  
Sea Level Pressure  
Sea Level Pressure 29.49 in    
Wind  
Wind Speed 18 mph (NW)    
Max Wind Speed 35 mph    
Max Gust Speed 42 mph    
Visibility 6 miles    
Events Fog , Rain , Snow    
T = Trace of Precipitation, MM = Missing Value Source: NWS Daily Summary

Daily Weather History Graph

Daily Weather History Graph

Search for Another Location

Airport:

Trip Planner

Search our weather history database for the weather conditions in past years. The results will help you decide how hot, cold, wet, or windy it might be!

Date:

Astronomy

Mar. 17, 2014 Rise Set
Actual Time 7:16 AM MDT 7:16 PM MDT
Civil Twilight 6:47 AM MDT 7:45 PM MDT
Nautical Twilight 6:13 AM MDT 8:19 PM MDT
Astronomical Twilight 5:38 AM MDT 8:54 PM MDT
Moon 8:41 PM MDT (3/17) 7:30 AM MDT (3/17)
Length of Visible Light 12h 58m
Length of Day
12h 00m
Full, 99% of the Moon is Illuminated
Mar 17
Full
Mar 23
Last Quarter
Mar 30
New
Apr 7
First Quarter
Apr 15
Full

Hourly Weather History & Observations

Time (MDT) Temp. Windchill Dew Point Humidity Pressure Visibility Wind Dir Wind Speed Gust Speed Precip Events Conditions
12:53 AM 46.9 °F - 21.0 °F 36% 29.66 in 10.0 mi NW 4.6 mph - N/A   Clear
1:53 AM 51.1 °F - 19.0 °F 28% 29.60 in 10.0 mi West 8.1 mph - N/A   Clear
2:53 AM 55.9 °F - 14.0 °F 19% 29.54 in 10.0 mi West 15.0 mph 24.2 mph N/A   Clear
3:53 AM 53.1 °F - 14.0 °F 21% 29.49 in 10.0 mi Calm Calm - N/A   Clear
4:53 AM 51.1 °F - 15.1 °F 24% 29.43 in 10.0 mi SSE 5.8 mph - N/A   Clear
5:53 AM 48.0 °F - 21.0 °F 34% 29.39 in 10.0 mi South 6.9 mph - N/A   Clear
6:53 AM 45.0 °F 39.7 °F 21.9 °F 40% 29.36 in 10.0 mi South 10.4 mph - N/A   Clear
7:53 AM 48.0 °F - 21.0 °F 34% 29.34 in 10.0 mi SSE 9.2 mph - N/A   Clear
8:53 AM 55.0 °F - 19.0 °F 24% 29.29 in 10.0 mi West 11.5 mph 17.3 mph N/A   Partly Cloudy
9:53 AM 53.1 °F - 23.0 °F 31% 29.26 in 10.0 mi SW 9.2 mph - N/A   Partly Cloudy
10:53 AM 55.0 °F - 21.0 °F 27% 29.26 in 10.0 mi West 18.4 mph 21.9 mph N/A   Overcast
11:53 AM 53.1 °F - 24.1 °F 32% 29.27 in 10.0 mi WNW 24.2 mph 29.9 mph N/A   Overcast
12:53 PM 54.0 °F - 27.0 °F 35% 29.29 in 10.0 mi NNW 24.2 mph - N/A   Clear
1:53 PM 50.0 °F - 30.9 °F 48% 29.29 in 10.0 mi NNW 29.9 mph 38.0 mph N/A   Clear
2:53 PM 45.0 °F 35.1 °F 32.0 °F 60% 29.32 in 10.0 mi NW 31.1 mph 38.0 mph N/A   Overcast
3:53 PM 45.0 °F 36.4 °F 33.1 °F 63% 29.36 in 10.0 mi NW 23.0 mph - N/A   Overcast
4:48 PM 42.8 °F 33.8 °F 33.8 °F 70% 29.41 in 10.0 mi NW 21.9 mph - N/A   Overcast
4:53 PM 42.1 °F 32.3 °F 33.1 °F 70% 29.40 in 10.0 mi NW 24.2 mph - N/A   Overcast
5:53 PM 39.9 °F 30.5 °F 35.1 °F 83% 29.44 in 10.0 mi NW 19.6 mph - 0.00 in Rain Light Rain
6:07 PM 39.0 °F 29.0 °F 35.1 °F 86% 29.44 in 10.0 mi NW 20.7 mph - 0.01 in Rain Light Rain
6:43 PM 37.0 °F 25.6 °F 33.1 °F 86% 29.46 in 10.0 mi NW 24.2 mph 31.1 mph 0.01 in   Overcast
6:53 PM 36.0 °F 24.4 °F 33.1 °F 89% 29.49 in 9.0 mi NW 23.0 mph 31.1 mph 0.01 in Rain Light Rain
7:09 PM 34.0 °F 21.8 °F 30.9 °F 89% 29.50 in 1.8 mi NW 23.0 mph 29.9 mph 0.03 in Snow Light Snow
7:22 PM 33.1 °F 21.5 °F 30.9 °F 92% 29.51 in 0.8 mi NW 19.6 mph - 0.07 in Snow Light Snow
7:39 PM 33.1 °F 20.9 °F 30.9 °F 92% 29.52 in 0.5 mi NW 21.9 mph 27.6 mph 0.10 in Fog , Snow Snow
7:50 PM 33.8 °F 21.6 °F 30.2 °F 87% 29.53 in 0.8 mi NW 23.0 mph - 0.16 in Snow Light Snow
7:53 PM 33.1 °F 20.9 °F 30.9 °F 92% 29.56 in 1.0 mi NW 21.9 mph - 0.16 in Snow Light Snow
8:03 PM 33.1 °F 20.9 °F 30.9 °F 92% 29.53 in 0.8 mi NW 21.9 mph - 0.02 in Snow Light Snow
8:18 PM 33.1 °F 20.3 °F 30.9 °F 92% 29.54 in 0.5 mi NW 24.2 mph 33.4 mph 0.04 in Fog , Snow Snow
8:34 PM 33.1 °F 20.1 °F 30.9 °F 92% 29.54 in 0.8 mi NW 25.3 mph - 0.05 in Snow Light Snow
8:53 PM 33.1 °F 20.3 °F 30.9 °F 92% 29.56 in 0.8 mi NW 24.2 mph - 0.07 in Snow Light Snow
9:04 PM 34.0 °F 20.3 °F 30.9 °F 89% 29.55 in 1.0 mi WNW 29.9 mph 35.7 mph 0.00 in Snow Light Snow
9:37 PM 33.1 °F 18.9 °F 30.9 °F 92% 29.58 in 0.8 mi NW 31.1 mph 39.1 mph 0.00 in Snow Light Snow
9:53 PM 33.1 °F 18.7 °F 30.9 °F 92% 29.62 in 0.8 mi NW 32.2 mph 39.1 mph 0.01 in Snow Light Snow
10:53 PM 33.1 °F 20.1 °F 30.9 °F 92% 29.70 in 0.8 mi NNW 25.3 mph 31.1 mph 0.02 in Snow Light Snow
11:10 PM 33.1 °F 18.7 °F 30.9 °F 92% 29.71 in 1.0 mi NNW 32.2 mph 36.8 mph 0.03 in Snow Light Snow
11:19 PM 32.0 °F 18.1 °F 30.0 °F 92% 29.73 in 0.8 mi NNW 27.6 mph 38.0 mph 0.03 in Snow Light Snow
11:34 PM 32.0 °F 18.1 °F 30.0 °F 92% 29.75 in 1.0 mi NNW 27.6 mph - 0.04 in Snow Light Snow
11:53 PM 32.0 °F 20.1 °F 30.0 °F 92% 29.79 in 1.2 mi NW 19.6 mph - 0.04 in Snow Light Snow